Location: La Savane
(18.0962°N, 63.0646°W)
Time: 23:44:20
(UTC+00:00)

CZ-2C R/B - Pass Details

Date: 29 October 2020
Orbit: 391 x 586 km, 35.0° (Epoch: 29 November)

Event Time Altitude Azimuth Distance (km) Brightness Sun altitude
Rises 22:43:31 0° 212° (SSW) 2,764 5.5 -15.3°
Reaches altitude 10° 22:46:11 10° 198° (SSW) 1,845 4.3 -16.0°
Maximum altitude 22:49:38 24° 144° (SE) 1,161 2.7 -16.8°
Enters shadow 22:50:19 23° 129° (SE) 1,189 2.6 -16.9°
